Time,TemperatureF,DewpointF,PressureIn,WindDirection,WindDirectionDegrees,WindSpeedMPH,WindSpeedGustMPH,Humidity,HourlyPrecipIn,Conditions,Clouds,dailyrainin,SoftwareType,DateUTC
2013-06-26 00:00:00,71.7,69.0,29.94,West,265,3.0,-999.0,91,-99.99,,,1.00,ADS-WS1 bash script,2013-06-26 04:00:00,
2013-06-26 00:05:00,70.9,68.0,29.94,West,268,5.0,-999.0,91,-99.99,,,1.00,ADS-WS1 bash script,2013-06-26 04:05:00,
2013-06-26 00:10:00,70.9,68.0,29.94,West,268,2.0,-999.0,91,-99.99,,,1.00,ADS-WS1 bash script,2013-06-26 04:10:00,
2013-06-26 00:15:00,70.4,68.0,29.94,WSW,241,2.0,-999.0,92,-99.99,,,1.00,ADS-WS1 bash script,2013-06-26 04:15:00,
2013-06-26 00:20:00,70.4,68.0,29.94,West,268,1.0,-999.0,92,-99.99,,,1.00,ADS-WS1 bash script,2013-06-26 04:20:00,
2013-06-26 00:25:00,70.0,68.0,29.93,SW,232,3.0,-999.0,93,-99.99,,,1.00,ADS-WS1 bash script,2013-06-26 04:25:00,
2013-06-26 00:30:00,69.9,68.0,29.93,NNW,335,2.0,-999.0,93,-99.99,,,1.00,ADS-WS1 bash script,2013-06-26 04:30:00,
2013-06-26 00:35:00,69.5,68.0,29.92,South,190,2.0,-999.0,93,-99.99,,,1.00,ADS-WS1 bash script,2013-06-26 04:35:00,
2013-06-26 00:40:00,69.3,67.0,29.92,WSW,245,3.0,-999.0,93,-99.99,,,1.00,ADS-WS1 bash script,2013-06-26 04:40:00,
2013-06-26 00:50:00,69.0,67.0,29.92,WSW,237,8.0,-999.0,93,-99.99,,,1.00,ADS-WS1 bash script,2013-06-26 04:50:00,
2013-06-26 00:55:00,69.1,67.0,29.91,NE,55,1.0,-999.0,94,-99.99,,,1.00,ADS-WS1 bash script,2013-06-26 04:55:00,
2013-06-26 01:00:00,69.1,67.0,29.90,SW,235,2.0,-999.0,94,-99.99,,,1.00,ADS-WS1 bash script,2013-06-26 05:00:00,
2013-06-26 01:05:00,69.0,67.0,29.90,SW,230,2.0,-999.0,94,-99.99,,,1.00,ADS-WS1 bash script,2013-06-26 05:05:00,
2013-06-26 01:10:00,69.0,67.0,29.90,NNW,335,1.0,-999.0,94,-99.99,,,1.00,ADS-WS1 bash script,2013-06-26 05:10:00,
2013-06-26 01:20:00,68.8,67.0,29.89,West,268,1.0,-999.0,94,-99.99,,,0.00,ADS-WS1 bash script,2013-06-26 05:20:00,
2013-06-26 01:25:00,68.6,67.0,29.89,NW,313,4.0,-999.0,94,-99.99,,,0.00,ADS-WS1 bash script,2013-06-26 05:25:00,
2013-06-26 01:30:00,68.6,67.0,29.88,West,278,2.0,-999.0,94,-99.99,,,0.00,ADS-WS1 bash script,2013-06-26 05:30:00,
2013-06-26 01:35:00,68.6,68.0,29.88,NW,313,2.0,-999.0,95,-99.99,,,0.00,ADS-WS1 bash script,2013-06-26 05:35:00,
2013-06-26 01:40:00,68.6,68.0,29.87,West,268,0.0,-999.0,95,-99.99,,,0.00,ADS-WS1 bash script,2013-06-26 05:40:00,
2013-06-26 01:50:00,68.6,67.0,29.86,NW,313,3.0,-999.0,94,-99.99,,,0.00,ADS-WS1 bash script,2013-06-26 05:50:00,
2013-06-26 01:55:00,68.4,67.0,29.85,West,268,3.0,-999.0,95,-99.99,,,0.00,ADS-WS1 bash script,2013-06-26 05:55:00,
2013-06-26 02:00:00,68.4,67.0,29.85,SW,224,2.0,-999.0,95,-99.99,,,0.00,ADS-WS1 bash script,2013-06-26 06:00:00,
2013-06-26 02:05:00,68.6,68.0,29.84,NW,313,1.0,-999.0,95,-99.99,,,0.00,ADS-WS1 bash script,2013-06-26 06:05:00,
2013-06-26 02:10:00,68.6,67.0,29.83,West,268,1.0,-999.0,94,-99.99,,,0.00,ADS-WS1 bash script,2013-06-26 06:10:00,
2013-06-26 02:20:00,68.8,67.0,29.83,NNW,335,0.0,-999.0,94,-99.99,,,0.00,ADS-WS1 bash script,2013-06-26 06:20:00,
2013-06-26 02:25:00,68.6,67.0,29.83,North,0,0.0,-999.0,94,-99.99,,,0.00,ADS-WS1 bash script,2013-06-26 06:25:00,
2013-06-26 02:30:00,68.8,67.0,29.83,North,350,0.0,-999.0,94,-99.99,,,0.00,ADS-WS1 bash script,2013-06-26 06:30:00,
2013-06-26 02:35:00,68.8,67.0,29.83,NE,43,1.0,-999.0,94,-99.99,,,0.00,ADS-WS1 bash script,2013-06-26 06:35:00,
2013-06-26 02:40:00,68.8,67.0,29.83,NE,43,0.0,-999.0,94,-99.99,,,0.00,ADS-WS1 bash script,2013-06-26 06:40:00,
2013-06-26 02:45:00,68.6,67.0,29.83,NE,43,0.0,-999.0,94,-99.99,,,0.00,ADS-WS1 bash script,2013-06-26 06:45:00,
2013-06-26 02:50:00,68.8,67.0,29.83,North,0,0.0,-999.0,94,-99.99,,,0.00,ADS-WS1 bash script,2013-06-26 06:50:00,
2013-06-26 02:55:00,68.8,68.0,29.83,NE,43,0.0,-999.0,95,-99.99,,,0.00,ADS-WS1 bash script,2013-06-26 06:55:00,
2013-06-26 03:00:00,68.8,67.0,29.84,North,0,0.0,-999.0,94,-99.99,,,0.00,ADS-WS1 bash script,2013-06-26 07:00:00,
2013-06-26 03:05:00,68.8,67.0,29.84,North,0,0.0,-999.0,94,-99.99,,,0.00,ADS-WS1 bash script,2013-06-26 07:05:00,
2013-06-26 03:10:00,68.8,68.0,29.83,NNW,347,0.0,-999.0,95,-99.99,,,0.00,ADS-WS1 bash script,2013-06-26 07:10:00,
2013-06-26 03:15:00,68.6,68.0,29.84,NE,43,0.0,-999.0,95,-99.99,,,0.00,ADS-WS1 bash script,2013-06-26 07:15:00,
2013-06-26 03:20:00,68.8,68.0,29.83,NE,43,0.0,-999.0,95,-99.99,,,0.00,ADS-WS1 bash script,2013-06-26 07:20:00,
2013-06-26 03:25:00,68.8,67.0,29.83,NNW,344,0.0,-999.0,94,-99.99,,,0.00,ADS-WS1 bash script,2013-06-26 07:25:00,
2013-06-26 03:30:00,68.6,67.0,29.83,NE,43,0.0,-999.0,94,-99.99,,,0.00,ADS-WS1 bash script,2013-06-26 07:30:00,
2013-06-26 03:35:00,68.6,67.0,29.83,NE,43,0.0,-999.0,94,-99.99,,,0.00,ADS-WS1 bash script,2013-06-26 07:35:00,
2013-06-26 03:40:00,68.4,66.0,29.83,NE,43,0.0,-999.0,94,-99.99,,,0.00,ADS-WS1 bash script,2013-06-26 07:40:00,
2013-06-26 03:50:00,68.2,66.0,29.83,North,0,0.0,-999.0,94,-99.99,,,0.00,ADS-WS1 bash script,2013-06-26 07:50:00,
2013-06-26 03:55:00,68.1,66.0,29.84,North,0,0.0,-999.0,94,-99.99,,,0.00,ADS-WS1 bash script,2013-06-26 07:55:00,
2013-06-26 04:00:00,68.1,66.0,29.84,NE,43,0.0,-999.0,94,-99.99,,,0.00,ADS-WS1 bash script,2013-06-26 08:00:00,
2013-06-26 04:05:00,67.9,67.0,29.84,East,88,0.0,-999.0,95,-99.99,,,0.00,ADS-WS1 bash script,2013-06-26 08:05:00,
2013-06-26 04:10:00,67.9,67.0,29.84,East,88,0.0,-999.0,95,-99.99,,,0.00,ADS-WS1 bash script,2013-06-26 08:10:00,
2013-06-26 04:15:00,67.7,67.0,29.84,East,81,0.0,-999.0,95,-99.99,,,0.00,ADS-WS1 bash script,2013-06-26 08:15:00,
2013-06-26 04:20:00,67.7,67.0,29.84,NE,43,0.0,-999.0,95,-99.99,,,0.00,ADS-WS1 bash script,2013-06-26 08:20:00,
2013-06-26 04:25:00,67.9,67.0,29.85,North,0,0.0,-999.0,96,-99.99,,,0.00,ADS-WS1 bash script,2013-06-26 08:25:00,
2013-06-26 04:30:00,67.7,67.0,29.85,NE,43,0.0,-999.0,95,-99.99,,,0.00,ADS-WS1 bash script,2013-06-26 08:30:00,
2013-06-26 04:35:00,67.7,67.0,29.85,SE,134,1.0,-999.0,96,-99.99,,,0.00,ADS-WS1 bash script,2013-06-26 08:35:00,
2013-06-26 04:40:00,67.7,67.0,29.85,SSE,156,2.0,-999.0,96,-99.99,,,0.00,ADS-WS1 bash script,2013-06-26 08:40:00,
2013-06-26 04:50:00,67.9,67.0,29.86,West,268,0.0,-999.0,96,-99.99,,,0.00,ADS-WS1 bash script,2013-06-26 08:50:00,
2013-06-26 05:00:00,67.9,67.0,29.87,SE,134,0.0,-999.0,96,-99.99,,,0.00,ADS-WS1 bash script,2013-06-26 09:00:00,
2013-06-26 05:05:00,67.9,67.0,29.86,SE,134,1.0,-999.0,96,-99.99,,,0.00,ADS-WS1 bash script,2013-06-26 09:05:00,
2013-06-26 05:10:00,67.9,67.0,29.86,South,179,0.0,-999.0,97,-99.99,,,0.00,ADS-WS1 bash script,2013-06-26 09:10:00,
2013-06-26 05:15:00,67.9,67.0,29.86,SW,228,0.0,-999.0,96,-99.99,,,0.00,ADS-WS1 bash script,2013-06-26 09:15:00,
2013-06-26 05:20:00,67.9,67.0,29.87,South,179,0.0,-999.0,96,-99.99,,,0.00,ADS-WS1 bash script,2013-06-26 09:20:00,
2013-06-26 05:25:00,67.9,67.0,29.86,SSE,163,1.0,-999.0,96,-99.99,,,0.00,ADS-WS1 bash script,2013-06-26 09:25:00,
2013-06-26 05:30:00,68.1,67.0,29.86,South,179,1.0,-999.0,96,-99.99,,,0.00,ADS-WS1 bash script,2013-06-26 09:30:00,
2013-06-26 05:35:00,68.1,67.0,29.86,South,179,0.0,-999.0,96,-99.99,,,0.00,ADS-WS1 bash script,2013-06-26 09:35:00,
2013-06-26 05:40:00,68.1,67.0,29.86,West,268,0.0,-999.0,97,-99.99,,,0.00,ADS-WS1 bash script,2013-06-26 09:40:00,
2013-06-26 05:45:00,68.1,67.0,29.86,SSW,204,0.0,-999.0,96,-99.99,,,0.00,ADS-WS1 bash script,2013-06-26 09:45:00,
2013-06-26 05:50:00,68.1,67.0,29.86,NE,43,0.0,-999.0,96,-99.99,,,0.00,ADS-WS1 bash script,2013-06-26 09:50:00,
2013-06-26 06:00:00,67.9,67.0,29.87,SW,224,0.0,-999.0,96,-99.99,,,0.00,ADS-WS1 bash script,2013-06-26 10:00:00,
2013-06-26 06:05:00,67.9,67.0,29.87,WNW,293,0.0,-999.0,96,-99.99,,,0.00,ADS-WS1 bash script,2013-06-26 10:05:00,
2013-06-26 06:10:00,67.9,67.0,29.87,SE,134,0.0,-999.0,96,-99.99,,,0.00,ADS-WS1 bash script,2013-06-26 10:10:00,
2013-06-26 06:15:00,67.9,67.0,29.88,West,268,0.0,-999.0,96,-99.99,,,0.00,ADS-WS1 bash script,2013-06-26 10:15:00,
2013-06-26 06:20:00,67.7,67.0,29.87,West,268,0.0,-999.0,96,-99.99,,,0.00,ADS-WS1 bash script,2013-06-26 10:20:00,
2013-06-26 06:25:00,67.7,67.0,29.87,NW,313,0.0,-999.0,95,-99.99,,,0.00,ADS-WS1 bash script,2013-06-26 10:25:00,
2013-06-26 06:30:00,67.9,67.0,29.87,North,0,0.0,-999.0,96,-99.99,,,0.00,ADS-WS1 bash script,2013-06-26 10:30:00,
2013-06-26 06:35:00,67.7,67.0,29.88,NNW,348,0.0,-999.0,96,-99.99,,,0.00,ADS-WS1 bash script,2013-06-26 10:35:00,
2013-06-26 06:40:00,67.9,67.0,29.86,South,169,1.0,-999.0,96,-99.99,,,0.00,ADS-WS1 bash script,2013-06-26 10:40:00,
2013-06-26 06:45:00,67.9,67.0,29.87,East,86,0.0,-999.0,96,-99.99,,,0.00,ADS-WS1 bash script,2013-06-26 10:45:00,
2013-06-26 06:50:00,68.1,67.0,29.87,West,268,0.0,-999.0,96,-99.99,,,0.00,ADS-WS1 bash script,2013-06-26 10:50:00,
2013-06-26 06:55:00,68.2,67.0,29.87,South,179,0.0,-999.0,96,-99.99,,,0.00,ADS-WS1 bash script,2013-06-26 10:55:00,
2013-06-26 07:00:00,68.2,67.0,29.88,West,272,0.0,-999.0,96,-99.99,,,0.00,ADS-WS1 bash script,2013-06-26 11:00:00,
2013-06-26 07:10:00,68.6,68.0,29.88,West,278,0.0,-999.0,96,-99.99,,,0.00,ADS-WS1 bash script,2013-06-26 11:10:00,
2013-06-26 07:15:00,68.6,68.0,29.88,NNW,343,0.0,-999.0,95,-99.99,,,0.00,ADS-WS1 bash script,2013-06-26 11:15:00,
2013-06-26 07:20:00,68.6,67.0,29.88,NW,309,0.0,-999.0,94,-99.99,,,0.00,ADS-WS1 bash script,2013-06-26 11:20:00,
2013-06-26 07:25:00,68.8,67.0,29.89,West,268,0.0,-999.0,94,-99.99,,,0.00,ADS-WS1 bash script,2013-06-26 11:25:00,
2013-06-26 07:30:00,68.8,68.0,29.88,North,350,0.0,-999.0,95,-99.99,,,0.00,ADS-WS1 bash script,2013-06-26 11:30:00,
2013-06-26 07:35:00,69.0,67.0,29.88,West,268,1.0,-999.0,94,-99.99,,,0.00,ADS-WS1 bash script,2013-06-26 11:35:00,
2013-06-26 07:40:00,69.1,67.0,29.88,West,268,0.0,-999.0,93,-99.99,,,0.00,ADS-WS1 bash script,2013-06-26 11:40:00,
2013-06-26 07:45:00,69.3,67.0,29.88,South,179,0.0,-999.0,93,-99.99,,,0.00,ADS-WS1 bash script,2013-06-26 11:45:00,
2013-06-26 07:50:00,69.3,67.0,29.87,SW,224,1.0,-999.0,93,-99.99,,,0.00,ADS-WS1 bash script,2013-06-26 11:50:00,
2013-06-26 07:55:00,69.3,67.0,29.87,NW,309,0.0,-999.0,93,-99.99,,,0.00,ADS-WS1 bash script,2013-06-26 11:55:00,
2013-06-26 08:00:00,69.5,68.0,29.87,NW,313,2.0,-999.0,93,-99.99,,,0.00,ADS-WS1 bash script,2013-06-26 12:00:00,
2013-06-26 08:05:00,69.5,68.0,29.88,SW,235,1.0,-999.0,93,-99.99,,,0.00,ADS-WS1 bash script,2013-06-26 12:05:00,
2013-06-26 08:10:00,69.7,68.0,29.88,West,268,0.0,-999.0,93,-99.99,,,0.00,ADS-WS1 bash script,2013-06-26 12:10:00,
2013-06-26 08:15:00,69.9,68.0,29.88,West,268,1.0,-999.0,92,-99.99,,,0.00,ADS-WS1 bash script,2013-06-26 12:15:00,
2013-06-26 08:25:00,69.9,67.0,29.88,SSW,211,3.0,-999.0,90,-99.99,,,0.00,ADS-WS1 bash script,2013-06-26 12:25:00,
2013-06-26 08:30:00,69.9,67.0,29.88,South,179,3.0,-999.0,90,-99.99,,,0.00,ADS-WS1 bash script,2013-06-26 12:30:00,
2013-06-26 08:35:00,70.0,67.0,29.88,West,268,0.0,-999.0,90,-99.99,,,0.00,ADS-WS1 bash script,2013-06-26 12:35:00,
2013-06-26 08:40:00,70.4,67.0,29.88,West,268,0.0,-999.0,91,-99.99,,,0.00,ADS-WS1 bash script,2013-06-26 12:40:00,
2013-06-26 08:45:00,70.6,68.0,29.88,WSW,245,5.0,-999.0,90,-99.99,,,0.00,ADS-WS1 bash script,2013-06-26 12:45:00,
2013-06-26 08:55:00,71.1,68.0,29.89,WSW,245,2.0,-999.0,89,-99.99,,,0.00,ADS-WS1 bash script,2013-06-26 12:55:00,
2013-06-26 09:00:00,71.5,68.0,29.89,SW,224,6.0,-999.0,88,-99.99,,,0.00,ADS-WS1 bash script,2013-06-26 13:00:00,
2013-06-26 09:05:00,71.8,68.0,29.90,WSW,245,3.0,-999.0,88,-99.99,,,0.00,ADS-WS1 bash script,2013-06-26 13:05:00,
2013-06-26 09:10:00,72.6,69.0,29.89,West,268,1.0,-999.0,88,-99.99,,,0.00,ADS-WS1 bash script,2013-06-26 13:10:00,
2013-06-26 09:15:00,72.9,69.0,29.89,WSW,239,7.0,-999.0,87,-99.99,,,0.00,ADS-WS1 bash script,2013-06-26 13:15:00,
2013-06-26 09:25:00,72.9,68.0,29.89,WSW,258,2.0,-999.0,84,-99.99,,,0.00,ADS-WS1 bash script,2013-06-26 13:25:00,
2013-06-26 09:30:00,72.9,68.0,29.89,West,268,2.0,-999.0,84,-99.99,,,0.00,ADS-WS1 bash script,2013-06-26 13:30:00,
2013-06-26 09:35:00,73.5,69.0,29.88,SW,225,2.0,-999.0,85,-99.99,,,0.00,ADS-WS1 bash script,2013-06-26 13:35:00,
2013-06-26 09:40:00,73.3,67.0,29.89,West,272,4.0,-999.0,83,-99.99,,,0.00,ADS-WS1 bash script,2013-06-26 13:40:00,
2013-06-26 09:50:00,73.3,68.0,29.88,West,268,5.0,-999.0,84,-99.99,,,0.00,ADS-WS1 bash script,2013-06-26 13:50:00,
2013-06-26 10:00:00,73.6,69.0,29.88,NW,313,2.0,-999.0,84,-99.99,,,0.00,ADS-WS1 bash script,2013-06-26 14:00:00,
2013-06-26 10:05:00,74.7,69.0,29.88,NW,313,0.0,-999.0,83,-99.99,,,0.00,ADS-WS1 bash script,2013-06-26 14:05:00,
2013-06-26 10:10:00,74.5,67.0,29.88,WSW,245,1.0,-999.0,80,-99.99,,,0.00,ADS-WS1 bash script,2013-06-26 14:10:00,
2013-06-26 10:15:00,74.9,69.0,29.88,NW,313,2.0,-999.0,81,-99.99,,,0.00,ADS-WS1 bash script,2013-06-26 14:15:00,
2013-06-26 10:25:00,74.5,68.0,29.88,NW,313,1.0,-999.0,82,-99.99,,,0.00,ADS-WS1 bash script,2013-06-26 14:25:00,
2013-06-26 10:35:00,74.7,69.0,29.88,WSW,245,2.0,-999.0,81,-99.99,,,0.00,ADS-WS1 bash script,2013-06-26 14:35:00,
2013-06-26 10:40:00,75.1,68.0,29.88,West,268,0.0,-999.0,80,-99.99,,,0.00,ADS-WS1 bash script,2013-06-26 14:40:00,
2013-06-26 10:45:00,75.6,69.0,29.88,SW,234,1.0,-999.0,80,-99.99,,,0.00,ADS-WS1 bash script,2013-06-26 14:45:00,
2013-06-26 10:55:00,76.3,69.0,29.88,West,268,2.0,-999.0,79,-99.99,,,0.00,ADS-WS1 bash script,2013-06-26 14:55:00,
2013-06-26 11:05:00,76.3,69.0,29.88,WSW,238,3.0,-999.0,80,-99.99,,,0.00,ADS-WS1 bash script,2013-06-26 15:05:00,
2013-06-26 11:15:00,76.5,69.0,29.88,South,179,0.0,-999.0,78,-99.99,,,0.00,ADS-WS1 bash script,2013-06-26 15:15:00,
2013-06-26 11:20:00,76.5,68.0,29.88,WSW,256,3.0,-999.0,77,-99.99,,,0.00,ADS-WS1 bash script,2013-06-26 15:20:00,
2013-06-26 11:25:00,76.9,69.0,29.88,NW,313,1.0,-999.0,77,-99.99,,,0.00,ADS-WS1 bash script,2013-06-26 15:25:00,
2013-06-26 11:30:00,77.2,69.0,29.88,NW,313,4.0,-999.0,77,-99.99,,,0.00,ADS-WS1 bash script,2013-06-26 15:30:00,
2013-06-26 11:35:00,77.4,69.0,29.88,NW,313,1.0,-999.0,77,-99.99,,,0.00,ADS-WS1 bash script,2013-06-26 15:35:00,
2013-06-26 11:40:00,77.4,69.0,29.89,NW,313,4.0,-999.0,76,-99.99,,,0.00,ADS-WS1 bash script,2013-06-26 15:40:00,
2013-06-26 11:45:00,77.6,69.0,29.88,West,279,3.0,-999.0,75,-99.99,,,0.00,ADS-WS1 bash script,2013-06-26 15:45:00,
2013-06-26 11:55:00,77.8,69.0,29.89,WSW,245,2.0,-999.0,75,-99.99,,,0.00,ADS-WS1 bash script,2013-06-26 15:55:00,
2013-06-26 12:00:00,77.2,69.0,29.89,WNW,290,6.0,-999.0,76,-99.99,,,0.00,ADS-WS1 bash script,2013-06-26 16:00:00,
2013-06-26 12:05:00,77.1,69.0,29.89,West,268,4.0,-999.0,76,-99.99,,,0.00,ADS-WS1 bash script,2013-06-26 16:05:00,
2013-06-26 12:10:00,77.4,69.0,29.88,NNW,335,3.0,-999.0,76,-99.99,,,0.00,ADS-WS1 bash script,2013-06-26 16:10:00,
2013-06-26 12:15:00,77.1,69.0,29.89,West,268,5.0,-999.0,76,-99.99,,,0.00,ADS-WS1 bash script,2013-06-26 16:15:00,
2013-06-26 12:20:00,76.9,69.0,29.89,WSW,254,4.0,-999.0,77,-99.99,,,0.00,ADS-WS1 bash script,2013-06-26 16:20:00,
2013-06-26 12:25:00,76.7,69.0,29.89,West,268,7.0,-999.0,77,-99.99,,,0.00,ADS-WS1 bash script,2013-06-26 16:25:00,
2013-06-26 12:30:00,76.5,69.0,29.89,WNW,299,3.0,-999.0,79,-99.99,,,0.00,ADS-WS1 bash script,2013-06-26 16:30:00,
2013-06-26 12:40:00,77.2,70.0,29.88,WNW,283,0.0,-999.0,78,-99.99,,,0.00,ADS-WS1 bash script,2013-06-26 16:40:00,
2013-06-26 12:50:00,77.8,70.0,29.88,WNW,299,1.0,-999.0,77,-99.99,,,0.00,ADS-WS1 bash script,2013-06-26 16:50:00,
2013-06-26 12:55:00,78.0,70.0,29.88,WNW,290,5.0,-999.0,77,-99.99,,,0.00,ADS-WS1 bash script,2013-06-26 16:55:00,
2013-06-26 13:00:00,77.8,70.0,29.88,WNW,290,2.0,-999.0,76,-99.99,,,0.00,ADS-WS1 bash script,2013-06-26 17:00:00,
2013-06-26 13:05:00,77.6,70.0,29.88,West,268,0.0,-999.0,76,-99.99,,,0.00,ADS-WS1 bash script,2013-06-26 17:05:00,
2013-06-26 13:10:00,77.1,69.0,29.88,SW,224,4.0,-999.0,77,-99.99,,,0.00,ADS-WS1 bash script,2013-06-26 17:10:00,
2013-06-26 13:20:00,77.4,70.0,29.88,NW,313,1.0,-999.0,78,-99.99,,,0.00,ADS-WS1 bash script,2013-06-26 17:20:00,
2013-06-26 13:25:00,77.6,70.0,29.87,WNW,286,2.0,-999.0,76,-99.99,,,0.00,ADS-WS1 bash script,2013-06-26 17:25:00,
2013-06-26 13:35:00,78.1,69.0,29.86,NNE,32,3.0,-999.0,75,-99.99,,,0.00,ADS-WS1 bash script,2013-06-26 17:35:00,
2013-06-26 13:40:00,78.1,69.0,29.86,WNW,290,1.0,-999.0,74,-99.99,,,0.00,ADS-WS1 bash script,2013-06-26 17:40:00,
2013-06-26 13:45:00,78.3,69.0,29.86,West,268,2.0,-999.0,75,-99.99,,,0.00,ADS-WS1 bash script,2013-06-26 17:45:00,
2013-06-26 13:50:00,78.3,69.0,29.85,NNE,26,3.0,-999.0,73,-99.99,,,0.00,ADS-WS1 bash script,2013-06-26 17:50:00,
2013-06-26 13:55:00,78.5,69.0,29.85,North,354,0.0,-999.0,74,-99.99,,,0.00,ADS-WS1 bash script,2013-06-26 17:55:00,
2013-06-26 14:00:00,79.2,70.0,29.85,NE,39,3.0,-999.0,73,-99.99,,,0.00,ADS-WS1 bash script,2013-06-26 18:00:00,
2013-06-26 14:05:00,79.2,70.0,29.84,NW,313,1.0,-999.0,74,-99.99,,,0.00,ADS-WS1 bash script,2013-06-26 18:05:00,
2013-06-26 14:10:00,79.2,69.0,29.84,North,0,2.0,-999.0,71,-99.99,,,0.00,ADS-WS1 bash script,2013-06-26 18:10:00,
2013-06-26 14:20:00,80.5,70.0,29.84,NW,323,2.0,-999.0,72,-99.99,,,0.00,ADS-WS1 bash script,2013-06-26 18:20:00,
2013-06-26 14:25:00,80.6,71.0,29.84,NNW,341,1.0,-999.0,71,-99.99,,,0.00,ADS-WS1 bash script,2013-06-26 18:25:00,
2013-06-26 14:30:00,80.6,70.0,29.84,NE,39,0.0,-999.0,69,-99.99,,,0.00,ADS-WS1 bash script,2013-06-26 18:30:00,
2013-06-26 14:40:00,81.7,72.0,29.84,NNW,328,0.0,-999.0,70,-99.99,,,0.00,ADS-WS1 bash script,2013-06-26 18:40:00,
2013-06-26 14:50:00,82.3,71.0,29.84,NW,313,0.0,-999.0,67,-99.99,,,0.00,ADS-WS1 bash script,2013-06-26 18:50:00,
2013-06-26 14:55:00,82.6,72.0,29.85,NNW,347,0.0,-999.0,67,-99.99,,,0.00,ADS-WS1 bash script,2013-06-26 18:55:00,
2013-06-26 15:00:00,82.4,71.0,29.84,South,179,2.0,-999.0,67,-99.99,,,0.00,ADS-WS1 bash script,2013-06-26 19:00:00,
2013-06-26 15:05:00,82.1,71.0,29.83,SE,129,2.0,-999.0,68,-99.99,,,0.00,ADS-WS1 bash script,2013-06-26 19:05:00,
2013-06-26 15:10:00,81.7,71.0,29.83,SSE,149,2.0,-999.0,67,-99.99,,,0.00,ADS-WS1 bash script,2013-06-26 19:10:00,
2013-06-26 15:15:00,82.4,71.0,29.83,SSE,151,2.0,-999.0,68,-99.99,,,0.00,ADS-WS1 bash script,2013-06-26 19:15:00,
2013-06-26 15:20:00,82.8,72.0,29.83,NNE,15,1.0,-999.0,67,-99.99,,,0.00,ADS-WS1 bash script,2013-06-26 19:20:00,
2013-06-26 15:25:00,83.2,71.0,29.83,West,259,0.0,-999.0,66,-99.99,,,0.00,ADS-WS1 bash script,2013-06-26 19:25:00,
2013-06-26 15:30:00,83.2,72.0,29.83,WSW,255,1.0,-999.0,67,-99.99,,,0.00,ADS-WS1 bash script,2013-06-26 19:30:00,
2013-06-26 15:40:00,82.4,71.0,29.84,NW,313,2.0,-999.0,69,-99.99,,,0.00,ADS-WS1 bash script,2013-06-26 19:40:00,
2013-06-26 15:45:00,82.3,71.0,29.84,WSW,254,3.0,-999.0,68,-99.99,,,0.00,ADS-WS1 bash script,2013-06-26 19:45:00,
2013-06-26 15:50:00,82.4,71.0,29.83,SE,145,0.0,-999.0,68,-99.99,,,0.00,ADS-WS1 bash script,2013-06-26 19:50:00,
2013-06-26 15:55:00,82.4,71.0,29.83,SE,134,0.0,-999.0,68,-99.99,,,0.00,ADS-WS1 bash script,2013-06-26 19:55:00,
2013-06-26 16:00:00,82.6,72.0,29.83,West,275,1.0,-999.0,69,-99.99,,,0.00,ADS-WS1 bash script,2013-06-26 20:00:00,
2013-06-26 16:05:00,82.1,72.0,29.83,ENE,66,2.0,-999.0,70,-99.99,,,0.00,ADS-WS1 bash script,2013-06-26 20:05:00,
2013-06-26 16:10:00,82.6,72.0,29.83,SE,124,2.0,-999.0,69,-99.99,,,0.00,ADS-WS1 bash script,2013-06-26 20:10:00,
2013-06-26 16:15:00,83.9,73.0,29.82,SSE,149,1.0,-999.0,69,-99.99,,,0.00,ADS-WS1 bash script,2013-06-26 20:15:00,
2013-06-26 16:20:00,84.4,72.0,29.82,East,88,1.0,-999.0,66,-99.99,,,0.00,ADS-WS1 bash script,2013-06-26 20:20:00,
2013-06-26 16:25:00,83.5,72.0,29.82,WSW,252,2.0,-999.0,65,-99.99,,,0.00,ADS-WS1 bash script,2013-06-26 20:25:00,
2013-06-26 16:30:00,82.8,72.0,29.82,West,268,3.0,-999.0,67,-99.99,,,0.00,ADS-WS1 bash script,2013-06-26 20:30:00,
2013-06-26 16:35:00,82.6,72.0,29.82,North,355,1.0,-999.0,69,-99.99,,,0.00,ADS-WS1 bash script,2013-06-26 20:35:00,
2013-06-26 16:40:00,82.4,71.0,29.82,SSW,200,0.0,-999.0,68,-99.99,,,0.00,ADS-WS1 bash script,2013-06-26 20:40:00,
2013-06-26 16:45:00,82.6,73.0,29.81,South,173,0.0,-999.0,70,-99.99,,,0.00,ADS-WS1 bash script,2013-06-26 20:45:00,
2013-06-26 16:50:00,82.6,73.0,29.82,SSE,162,2.0,-999.0,70,-99.99,,,0.00,ADS-WS1 bash script,2013-06-26 20:50:00,
2013-06-26 17:00:00,83.3,72.0,29.82,SSE,156,1.0,-999.0,68,-99.99,,,0.00,ADS-WS1 bash script,2013-06-26 21:00:00,
2013-06-26 17:05:00,83.3,72.0,29.82,West,268,2.0,-999.0,68,-99.99,,,0.00,ADS-WS1 bash script,2013-06-26 21:05:00,
2013-06-26 17:10:00,83.9,73.0,29.82,WNW,290,2.0,-999.0,69,-99.99,,,0.00,ADS-WS1 bash script,2013-06-26 21:10:00,
2013-06-26 17:15:00,83.9,73.0,29.82,West,268,1.0,-999.0,68,-99.99,,,0.00,ADS-WS1 bash script,2013-06-26 21:15:00,
2013-06-26 17:20:00,83.5,74.0,29.82,NW,313,0.0,-999.0,70,-99.99,,,0.00,ADS-WS1 bash script,2013-06-26 21:20:00,
2013-06-26 17:25:00,83.9,73.0,29.81,NE,43,1.0,-999.0,69,-99.99,,,0.00,ADS-WS1 bash script,2013-06-26 21:25:00,
2013-06-26 17:35:00,84.2,72.0,29.81,West,268,3.0,-999.0,66,-99.99,,,0.00,ADS-WS1 bash script,2013-06-26 21:35:00,
2013-06-26 17:40:00,83.7,72.0,29.81,SW,224,4.0,-999.0,66,-99.99,,,0.00,ADS-WS1 bash script,2013-06-26 21:40:00,
2013-06-26 17:45:00,83.3,72.0,29.81,East,88,1.0,-999.0,69,-99.99,,,0.00,ADS-WS1 bash script,2013-06-26 21:45:00,
2013-06-26 17:50:00,83.9,73.0,29.81,ESE,118,1.0,-999.0,68,-99.99,,,0.00,ADS-WS1 bash script,2013-06-26 21:50:00,
2013-06-26 17:55:00,83.7,73.0,29.80,East,95,2.0,-999.0,68,-99.99,,,0.00,ADS-WS1 bash script,2013-06-26 21:55:00,
2013-06-26 18:00:00,83.9,73.0,29.80,South,179,0.0,-999.0,67,-99.99,,,0.00,ADS-WS1 bash script,2013-06-26 22:00:00,
2013-06-26 18:05:00,83.7,73.0,29.80,East,80,0.0,-999.0,67,-99.99,,,0.00,ADS-WS1 bash script,2013-06-26 22:05:00,
2013-06-26 18:10:00,83.3,72.0,29.79,WSW,256,4.0,-999.0,68,-99.99,,,0.00,ADS-WS1 bash script,2013-06-26 22:10:00,
2013-06-26 18:15:00,83.2,72.0,29.79,ENE,59,1.0,-999.0,67,-99.99,,,0.00,ADS-WS1 bash script,2013-06-26 22:15:00,
2013-06-26 18:25:00,82.6,72.0,29.79,SSE,162,2.0,-999.0,69,-99.99,,,0.00,ADS-WS1 bash script,2013-06-26 22:25:00,
2013-06-26 18:30:00,82.6,72.0,29.78,SSE,149,1.0,-999.0,67,-99.99,,,0.00,ADS-WS1 bash script,2013-06-26 22:30:00,
2013-06-26 18:40:00,82.6,72.0,29.78,WNW,283,0.0,-999.0,69,-99.99,,,0.00,ADS-WS1 bash script,2013-06-26 22:40:00,
2013-06-26 18:45:00,82.4,71.0,29.78,West,268,1.0,-999.0,68,-99.99,,,0.00,ADS-WS1 bash script,2013-06-26 22:45:00,
2013-06-26 18:55:00,82.3,71.0,29.78,NW,313,0.0,-999.0,67,-99.99,,,0.00,ADS-WS1 bash script,2013-06-26 22:55:00,
2013-06-26 19:00:00,82.1,70.0,29.78,East,94,0.0,-999.0,66,-99.99,,,0.00,ADS-WS1 bash script,2013-06-26 23:00:00,
2013-06-26 19:10:00,81.9,71.0,29.78,East,84,0.0,-999.0,68,-99.99,,,0.00,ADS-WS1 bash script,2013-06-26 23:10:00,
2013-06-26 19:15:00,81.7,71.0,29.78,ENE,77,0.0,-999.0,68,-99.99,,,0.00,ADS-WS1 bash script,2013-06-26 23:15:00,
2013-06-26 19:20:00,81.7,71.0,29.77,West,278,0.0,-999.0,67,-99.99,,,0.00,ADS-WS1 bash script,2013-06-26 23:20:00,
2013-06-26 19:25:00,81.5,71.0,29.77,SW,224,0.0,-999.0,68,-99.99,,,0.00,ADS-WS1 bash script,2013-06-26 23:25:00,
2013-06-26 19:30:00,81.4,70.0,29.78,SSE,160,1.0,-999.0,68,-99.99,,,0.00,ADS-WS1 bash script,2013-06-26 23:30:00,
2013-06-26 19:40:00,81.2,71.0,29.78,West,268,0.0,-999.0,70,-99.99,,,0.00,ADS-WS1 bash script,2013-06-26 23:40:00,
2013-06-26 19:45:00,81.0,71.0,29.78,West,268,0.0,-999.0,70,-99.99,,,0.00,ADS-WS1 bash script,2013-06-26 23:45:00,
2013-06-26 19:50:00,80.8,71.0,29.78,SE,134,1.0,-999.0,70,-99.99,,,0.00,ADS-WS1 bash script,2013-06-26 23:50:00,
2013-06-26 19:55:00,80.6,71.0,29.79,SSE,166,0.0,-999.0,70,-99.99,,,0.00,ADS-WS1 bash script,2013-06-26 23:55:00,
2013-06-26 20:05:00,80.5,70.0,29.78,NW,313,0.0,-999.0,71,-99.99,,,0.00,ADS-WS1 bash script,2013-06-27 00:05:00,
2013-06-26 20:10:00,80.3,70.0,29.79,SSE,149,1.0,-999.0,72,-99.99,,,0.00,ADS-WS1 bash script,2013-06-27 00:10:00,
2013-06-26 20:20:00,79.9,70.0,29.78,West,268,0.0,-999.0,72,-99.99,,,0.00,ADS-WS1 bash script,2013-06-27 00:20:00,
2013-06-26 20:25:00,79.7,71.0,29.78,NNW,335,0.0,-999.0,74,-99.99,,,0.00,ADS-WS1 bash script,2013-06-27 00:25:00,
2013-06-26 20:30:00,79.7,71.0,29.78,NW,320,0.0,-999.0,74,-99.99,,,0.00,ADS-WS1 bash script,2013-06-27 00:30:00,
2013-06-26 20:40:00,79.6,71.0,29.79,WSW,239,1.0,-999.0,74,-99.99,,,0.00,ADS-WS1 bash script,2013-06-27 00:40:00,
2013-06-26 20:45:00,79.4,70.0,29.78,NE,36,0.0,-999.0,75,-99.99,,,0.00,ADS-WS1 bash script,2013-06-27 00:45:00,
2013-06-26 20:50:00,79.2,70.0,29.79,WSW,241,0.0,-999.0,75,-99.99,,,0.00,ADS-WS1 bash script,2013-06-27 00:50:00,
2013-06-26 20:55:00,79.2,71.0,29.79,South,179,0.0,-999.0,76,-99.99,,,0.00,ADS-WS1 bash script,2013-06-27 00:55:00,
2013-06-26 21:05:00,78.7,71.0,29.78,SE,134,1.0,-999.0,76,-99.99,,,0.00,ADS-WS1 bash script,2013-06-27 01:05:00,
2013-06-26 21:10:00,78.7,71.0,29.78,SE,134,0.0,-999.0,76,-99.99,,,0.00,ADS-WS1 bash script,2013-06-27 01:10:00,
2013-06-26 21:15:00,78.3,71.0,29.78,SE,134,1.0,-999.0,78,-99.99,,,0.00,ADS-WS1 bash script,2013-06-27 01:15:00,
2013-06-26 21:20:00,78.1,71.0,29.78,SW,231,0.0,-999.0,78,-99.99,,,0.00,ADS-WS1 bash script,2013-06-27 01:20:00,
2013-06-26 21:25:00,78.1,71.0,29.79,WSW,245,1.0,-999.0,79,-99.99,,,0.00,ADS-WS1 bash script,2013-06-27 01:25:00,
2013-06-26 21:30:00,77.8,71.0,29.79,WNW,300,2.0,-999.0,79,-99.99,,,0.00,ADS-WS1 bash script,2013-06-27 01:30:00,
2013-06-26 21:35:00,77.1,70.0,29.80,SSW,200,5.0,-999.0,78,-99.99,,,0.00,ADS-WS1 bash script,2013-06-27 01:35:00,
2013-06-26 21:40:00,76.5,68.0,29.80,West,261,6.0,-999.0,77,-99.99,,,0.00,ADS-WS1 bash script,2013-06-27 01:40:00,
2013-06-26 21:45:00,75.6,69.0,29.81,NW,304,6.0,-999.0,80,-99.99,,,0.00,ADS-WS1 bash script,2013-06-27 01:45:00,
2013-06-26 21:50:00,74.7,68.0,29.80,WNW,285,5.0,-999.0,80,-99.99,,,0.00,ADS-WS1 bash script,2013-06-27 01:50:00,
2013-06-26 21:55:00,74.4,68.0,29.80,WNW,293,3.0,-999.0,83,-99.99,,,0.00,ADS-WS1 bash script,2013-06-27 01:55:00,
2013-06-26 22:05:00,73.8,69.0,29.80,West,280,2.0,-999.0,85,-99.99,,,0.00,ADS-WS1 bash script,2013-06-27 02:05:00,
2013-06-26 22:10:00,74.0,69.0,29.80,NW,306,1.0,-999.0,85,-99.99,,,0.00,ADS-WS1 bash script,2013-06-27 02:10:00,
2013-06-26 22:15:00,74.2,69.0,29.79,NW,313,0.0,-999.0,85,-99.99,,,0.00,ADS-WS1 bash script,2013-06-27 02:15:00,
2013-06-26 22:20:00,74.0,69.0,29.79,NW,309,1.0,-999.0,86,-99.99,,,0.00,ADS-WS1 bash script,2013-06-27 02:20:00,
2013-06-26 22:30:00,73.6,70.0,29.78,South,179,1.0,-999.0,87,-99.99,,,0.00,ADS-WS1 bash script,2013-06-27 02:30:00,
2013-06-26 22:40:00,73.3,69.0,29.78,South,179,1.0,-999.0,87,-99.99,,,0.00,ADS-WS1 bash script,2013-06-27 02:40:00,
2013-06-26 22:45:00,73.3,69.0,29.78,West,268,0.0,-999.0,88,-99.99,,,0.00,ADS-WS1 bash script,2013-06-27 02:45:00,
2013-06-26 22:50:00,73.3,70.0,29.78,SE,134,0.0,-999.0,89,-99.99,,,0.00,ADS-WS1 bash script,2013-06-27 02:50:00,
2013-06-26 23:00:00,73.1,70.0,29.78,North,351,0.0,-999.0,89,-99.99,,,0.00,ADS-WS1 bash script,2013-06-27 03:00:00,
2013-06-26 23:10:00,72.7,70.0,29.78,NE,36,0.0,-999.0,91,-99.99,,,0.00,ADS-WS1 bash script,2013-06-27 03:10:00,
2013-06-26 23:20:00,72.7,70.0,29.77,North,11,0.0,-999.0,91,-99.99,,,0.00,ADS-WS1 bash script,2013-06-27 03:20:00,
2013-06-26 23:25:00,72.6,70.0,29.77,NE,43,0.0,-999.0,91,-99.99,,,0.00,ADS-WS1 bash script,2013-06-27 03:25:00,
2013-06-26 23:30:00,72.6,71.0,29.78,ENE,57,1.0,-999.0,92,-99.99,,,0.00,ADS-WS1 bash script,2013-06-27 03:30:00,
2013-06-26 23:35:00,72.4,70.0,29.78,NNE,28,0.0,-999.0,92,-99.99,,,0.00,ADS-WS1 bash script,2013-06-27 03:35:00,
2013-06-26 23:40:00,72.4,70.0,29.77,NE,40,3.0,-999.0,93,-99.99,,,0.00,ADS-WS1 bash script,2013-06-27 03:40:00,
2013-06-26 23:45:00,72.6,71.0,29.77,NE,43,1.0,-999.0,93,-99.99,,,0.00,ADS-WS1 bash script,2013-06-27 03:45:00,
2013-06-26 23:50:00,72.6,71.0,29.77,East,88,0.0,-999.0,92,-99.99,,,0.00,ADS-WS1 bash script,2013-06-27 03:50:00,